Location: Baix
(44.7118°N, 4.7648°E)
Time: 15:28:14
(UTC+00:00)

Timation 2 Rocket - Pass Details

Date: 07 August 2020
Orbit: 907 x 1074 km, 70.0° (Epoch: 23 September)

Event Time Altitude Azimuth Distance (km) Brightness Sun altitude
Exits shadow 01:14:29 60° 237° (WSW) 1,070 3.9 -25.8°
Maximum altitude 01:15:33 75° 298° (WNW) 975 3.9 -25.7°
Drops below altitude 10° 01:21:37 10° 24° (NNE) 2,622 7.3 -25.3°
Sets 01:24:07 0° 27° (NNE) 3,557 8.3 -25.1°
